User: anonymous   Login
Location: Gipe Farm
(40.9466°N, 95.5370°W)
Time: 01:34:47
(UTC-05:00)
Language:

Cosmos 2082 Rocket - Orbit

View from above orbital plane
View from above orbital plane
View from above satellite
View from above satellite

Ground track
Ground track

The orbit data is extracted from the following two-line orbital elements,

1 20625U 90046B   15109.16594898 -.00000215  00000-0 -86887-4 0  9991
2 20625 071.0010 007.1738 0016198 232.8542 279.4042 14.14568420286114
Epoch (UTC): 19 April 2015 03:58:57
Eccentricity: 0.0016198
inclination: 71.0010°
perigee height: 832 km
apogee height: 855 km
right ascension of ascending node: 7.1738°
argument of perigee: 232.8542°
revolutions per day: 14.14568420
mean anomaly at epoch: 279.4042°
orbit number at epoch: 28611

The dashed part of the orbit path shows where the satellite is in the earth's shadow,  

DLR